Date String (YYYY-MM-DD hh:mm:ss) UTC,Instrument flags,absolute air pressure of the measurement (hPa),sample flow rate (lpm),inlet stack bypass flow (lpm),air temperature of the measurement (°C),ambient temperature measured by the external sensor (°C),aerosol sample conditioner tube jacket temperature (°C),OPC LED temperature (°C),internal box temperature (°C),relative humidity of the measurement (%),span deviation,mass concentration of particles derived from Lorenz-Mie calculation of OPC scattering (μg/m³),mass concentration of particles derived from Lorenz-Mie calculation of OPC scattering (μg/m³),mass concentration of particles derived from Lorenz-Mie calculation of OPC scattering (μg/m³)
DateTimeUTC,F1_M11,P_M11,Q1_M11,Q2_M11,T1_M11,T2_M11,T3_M11,T4_M11,T5_M11,U1_M11,ZSPAN_M11,X2_M11,X0_M11,X1_M11
2023-08-16 09:00:00,SystemResetWarning,0833.8,5.00,000.00,029.3,026.7,000.0,037.9,030.8,18.7,0000.0,0005.22,0013.18,0004.44
2023-08-16 09:01:00,SystemResetWarning,0833.8,5.00,000.00,029.3,027.0,000.0,037.9,030.8,18.7,0000.0,0005.22,0013.49,0004.43
2023-08-16 09:02:00,SystemResetWarning,0833.8,5.01,000.00,029.3,027.3,000.0,037.9,030.9,18.7,0000.0,0005.23,0013.17,0004.42
2023-08-16 09:03:00,SystemResetWarning,0833.8,5.00,000.00,029.3,027.5,000.0,037.9,030.9,18.7,0000.0,0005.23,0013.05,0004.42
2023-08-16 09:04:00,SystemResetWarning,0833.8,5.00,000.00,029.3,027.7,000.0,037.9,031.0,18.7,0000.0,0005.24,0012.39,0004.42
2023-08-16 09:05:00,SystemResetWarning,0833.8,5.00,000.00,029.4,027.8,000.0,037.9,031.0,18.7,0000.0,0005.21,0012.84,0004.43
2023-08-16 09:06:00,SystemResetWarning,0833.7,5.00,000.00,029.4,028.0,000.0,037.9,031.1,18.7,0000.0,0005.20,0013.03,0004.46
2023-08-16 09:07:00,SystemResetWarning,0833.8,5.00,000.00,029.4,028.1,000.0,037.9,031.1,18.7,0000.0,0005.26,0013.08,0004.50
2023-08-16 09:08:00,SystemResetWarning,0833.8,4.99,000.00,029.5,028.2,000.0,038.0,031.2,18.6,0000.0,0005.33,0013.81,0004.52
2023-08-16 09:09:00,SystemResetWarning,0833.8,4.99,000.00,029.5,028.3,000.0,038.0,031.2,18.5,0000.0,0005.40,0014.76,0004.56
2023-08-16 09:10:00,SystemResetWarning,0833.8,5.00,000.00,029.5,028.4,000.0,038.0,031.2,18.4,0000.0,0005.47,0014.95,0004.61
2023-08-16 09:11:00,SystemResetWarning,0833.8,5.00,000.00,029.6,028.4,000.0,038.0,031.3,18.3,0000.0,0005.55,0014.80,0004.66
2023-08-16 09:12:00,SystemResetWarning,0833.8,4.99,000.00,029.6,028.3,000.0,038.0,031.2,18.2,0000.0,0005.61,0014.56,0004.71
2023-08-16 09:13:00,SystemResetWarning,0833.7,5.00,000.00,029.6,026.5,000.0,037.9,031.0,18.1,0000.0,0005.66,0014.79,0004.74
2023-08-16 09:14:00,SystemResetWarning,0833.7,5.00,000.00,029.5,025.4,000.0,037.8,030.7,18.1,0000.0,0005.72,0014.35,0004.78
2023-08-16 09:15:00,SystemResetWarning,0833.7,5.01,000.00,029.4,025.5,000.0,037.8,030.6,18.2,0000.0,0005.79,0015.95,0004.81
2023-08-16 09:16:00,SystemResetWarning,0833.7,5.01,000.00,029.3,025.8,000.0,037.8,030.5,18.3,0000.0,0005.82,0015.71,0004.84
2023-08-16 09:17:00,SystemResetWarning,0833.7,5.01,000.00,029.2,026.2,000.0,037.8,030.6,18.2,0000.0,0005.89,0015.61,0004.85
2023-08-16 09:18:00,SystemResetWarning,0833.6,5.00,000.00,029.2,026.5,000.0,037.8,030.7,18.2,0000.0,0005.94,0015.82,0004.86
2023-08-16 09:19:00,SystemResetWarning,0833.7,5.00,000.00,029.3,026.9,000.0,037.8,030.8,18.2,0000.0,0005.93,0016.12,0004.86
2023-08-16 09:20:00,SystemResetWarning,0833.7,5.00,000.00,029.3,027.1,000.0,037.8,030.8,18.2,0000.0,0005.93,0016.48,0004.85
2023-08-16 09:21:00,SystemResetWarning,0833.6,4.98,000.00,029.3,027.4,000.0,037.8,030.9,18.2,0000.0,0005.97,0016.95,0004.86
2023-08-16 09:22:00,SystemResetWarning,0833.6,5.00,000.00,029.3,027.6,000.0,037.9,030.9,18.1,0000.0,0005.96,0017.02,0004.85
2023-08-16 09:23:00,SystemResetWarning,0833.6,5.00,000.00,029.3,027.7,000.0,037.9,031.0,18.2,0000.0,0005.96,0016.87,0004.83
2023-08-16 09:24:00,SystemResetWarning,0833.7,5.00,000.00,029.3,027.9,000.0,037.9,031.0,18.1,0000.0,0005.97,0016.69,0004.83
2023-08-16 09:25:00,SystemResetWarning,0833.7,5.01,000.00,029.4,028.0,000.0,037.9,031.0,18.1,0000.0,0005.99,0017.32,0004.83
2023-08-16 09:26:00,SystemResetWarning,0833.7,5.00,000.00,029.4,028.1,000.0,037.9,031.1,18.1,0000.0,0006.00,0016.74,0004.84
2023-08-16 09:27:00,SystemResetWarning,0833.7,5.00,000.00,029.4,028.2,000.0,037.9,031.1,18.1,0000.0,0006.00,0016.73,0004.83
2023-08-16 09:28:00,SystemResetWarning,0833.7,5.00,000.00,029.5,028.2,000.0,037.9,031.1,18.1,0000.0,0005.99,0017.37,0004.82
2023-08-16 09:29:00,SystemResetWarning,0833.7,5.00,000.00,029.5,028.3,000.0,038.0,031.2,18.1,0000.0,0005.92,0017.62,0004.81
2023-08-16 09:30:00,SystemResetWarning,0833.6,5.00,000.00,029.5,028.3,000.0,038.0,031.2,18.4,0000.0,0005.91,0017.24,0004.80
2023-08-16 09:31:00,SystemResetWarning,0833.6,5.01,000.00,029.5,028.4,000.0,038.0,031.2,18.5,0000.0,0005.91,0016.07,0004.81
2023-08-16 09:32:00,SystemResetWarning,0833.7,5.01,000.00,029.6,028.4,000.0,038.0,031.3,18.1,0000.0,0005.87,0015.60,0004.80
2023-08-16 09:33:00,SystemResetWarning,0833.7,5.00,000.00,029.6,028.5,000.0,038.1,031.3,18.0,0000.0,0005.86,0015.97,0004.81
2023-08-16 09:34:00,SystemResetWarning,0833.6,4.99,000.00,029.6,028.1,000.0,038.0,031.2,18.1,0000.0,0005.87,0016.47,0004.83
2023-08-16 09:35:00,SystemResetWarning,0833.6,4.99,000.00,029.6,026.2,000.0,037.9,030.9,17.9,0000.0,0005.87,0016.36,0004.84
2023-08-16 09:36:00,SystemResetWarning,0833.5,5.01,000.00,029.5,025.4,000.0,037.8,030.7,17.8,0000.0,0005.86,0016.60,0004.85
2023-08-16 09:37:00,SystemResetWarning,0833.5,5.01,000.00,029.4,025.5,000.0,037.8,030.6,17.9,0000.0,0005.84,0016.45,0004.85
2023-08-16 09:38:00,SystemResetWarning,0833.5,4.99,000.00,029.3,025.8,000.0,037.8,030.5,18.1,0000.0,0005.84,0016.39,0004.85
2023-08-16 09:39:00,SystemResetWarning,0833.5,4.99,000.00,029.3,026.2,000.0,037.9,030.6,18.2,0000.0,0005.81,0015.59,0004.85
2023-08-16 09:40:00,SystemResetWarning,0833.5,5.01,000.00,029.3,026.5,000.0,037.9,030.7,18.2,0000.0,0005.84,0015.60,0004.86
2023-08-16 09:41:00,SystemResetWarning,0833.5,5.01,000.00,029.3,026.9,000.0,037.9,030.8,18.2,0000.0,0005.85,0015.13,0004.87
2023-08-16 09:42:00,SystemResetWarning,0833.5,4.99,000.00,029.3,027.1,000.0,037.9,030.8,18.1,0000.0,0005.85,0015.67,0004.86
2023-08-16 09:43:00,SystemResetWarning,0833.4,5.00,000.00,029.3,027.3,000.0,037.9,030.9,18.3,0000.0,0005.85,0015.14,0004.86
2023-08-16 09:44:00,SystemResetWarning,0833.4,5.00,000.00,029.3,027.5,000.0,037.9,030.9,18.2,0000.0,0005.87,0014.82,0004.85
2023-08-16 09:45:00,SystemResetWarning,0833.5,5.00,000.00,029.3,027.7,000.0,037.9,031.0,18.1,0000.0,0005.86,0014.84,0004.84
2023-08-16 09:46:00,SystemResetWarning,0833.5,5.00,000.00,029.4,027.8,000.0,037.9,031.0,18.2,0000.0,0005.89,0014.56,0004.84
2023-08-16 09:47:00,SystemResetWarning,0833.4,5.01,000.00,029.4,027.9,000.0,037.9,031.0,18.2,0000.0,0005.93,0014.03,0004.84
2023-08-16 09:48:00,SystemResetWarning,0833.4,5.01,000.00,029.4,028.0,000.0,037.9,031.1,18.0,0000.0,0005.95,0013.80,0004.83
2023-08-16 09:49:00,SystemResetWarning,0833.4,5.00,000.00,029.4,028.1,000.0,038.0,031.1,17.9,0000.0,0005.94,0013.06,0004.84
2023-08-16 09:50:00,SystemResetWarning,0833.4,5.00,000.00,029.5,028.2,000.0,038.0,031.1,17.9,0000.0,0006.01,0013.56,0004.84
2023-08-16 09:51:00,SystemResetWarning,0833.5,5.00,000.00,029.5,028.2,000.0,038.0,031.1,17.8,0000.0,0006.02,0013.94,0004.85
2023-08-16 09:52:00,SystemResetWarning,0833.4,5.00,000.00,029.5,028.3,000.0,038.0,031.2,17.6,0001.4,0006.04,0014.99,0004.86
2023-08-16 09:53:00,SystemResetWarning,0833.4,5.00,000.00,029.5,028.3,000.0,038.0,031.2,17.6,0002.2,0006.03,0015.73,0004.85
2023-08-16 09:54:00,SystemResetWarning,0833.4,5.00,000.00,029.6,028.4,000.0,038.0,031.3,17.5,0002.2,0005.97,0016.02,0004.85
2023-08-16 09:55:00,SystemResetWarning,0833.4,4.99,000.00,029.6,028.4,000.0,038.1,031.3,17.6,0001.9,0005.95,0016.04,0004.85
2023-08-16 09:56:00,SystemResetWarning,0833.4,4.99,000.00,029.6,028.4,000.0,038.1,031.3,17.4,0001.9,0005.94,0015.53,0004.86
2023-08-16 09:57:00,SystemResetWarning,0833.4,5.00,000.00,029.6,027.0,000.0,038.0,031.0,17.5,0002.5,0005.92,0016.06,0004.87
2023-08-16 09:58:00,SystemResetWarning,0833.4,5.00,000.00,029.5,025.5,000.0,037.8,030.7,17.6,0002.4,0005.91,0016.72,0004.87
2023-08-16 09:59:00,SystemResetWarning,0833.4,5.01,000.00,029.4,025.4,000.0,037.8,030.6,17.7,0002.0,0005.89,0016.67,0004.87
